Stations météo

Publicité
Lulea/Kallax, Suède (2186): Température de l'air & dewpoint: 19.03.2019 13:00:00 - 25.03.2019 13:00:00 (CET)Lulea/Kallax, Suède (2186): Vitesse du vent & gusts: 19.03.2019 13:00:00 - 25.03.2019 13:00:00 (CET)Lulea/Kallax, Suède (2186): Direction du vent: 19.03.2019 13:00:00 - 25.03.2019 13:00:00 (CET)Lulea/Kallax, Suède (2186): reduced air pressure: 19.03.2019 13:00:00 - 25.03.2019 13:00:00 (CET)Lulea/Kallax, Suède (2186): visibility: 19.03.2019 13:00:00 - 25.03.2019 13:00:00 (CET)Lulea/Kallax, Suède (2186): Quantités de précipitations: 19.03.2019 13:00:00 - 25.03.2019 13:00:00 (CET)
Date & Time tt [°C] td [°C] ff [km/h] ff [knt] fx [km/h] fx [knt] dd ppp [hPa] vv [km] rr [mm]
25.03.2019 13:00:00 1,2 -7,9 15 8 29 16 NNW 1006,4 10 0,0
25.03.2019 12:00:00 0,9 -8,1 16 9 32 18 N 1006,5 10 0,0
25.03.2019 11:00:00 0,5 -6,8 13 7 32 18 N 1006,2 10 0,0
25.03.2019 10:00:00 0,5 -6,8 16 9 32 18 N 1005,8 10 0,0
25.03.2019 09:00:00 -0,8 -6,6 15 8 29 16 N 1005,2 10 0,0
25.03.2019 08:00:00 -0,4 -6,2 18 10 32 18 N 1004,4 10 0,0
25.03.2019 07:00:00 -1,9 -6,3 18 10 29 16 NNW 1003,3 10 0,0
25.03.2019 06:00:00 -3,1 -7,1 18 10 25 14 NNW 1002,4 10 0,0
25.03.2019 05:00:00 -2,7 -7,0 16 9 29 16 NNW 1001,6 10 0,0
25.03.2019 04:00:00 -2,7 -7,2 18 10 29 16 NNW 1000,9 10 0,0
25.03.2019 03:00:00 -3,1 -8,0 21 11 25 14 NW 1000,3 10 0,0
25.03.2019 02:00:00 -2,5 -8,6 13 7 22 12 NW 999,8 10 0,0
25.03.2019 01:00:00 -2,3 -8,4 18 10 29 16 NW 999,6 10 0,0
25.03.2019 00:00:00 -1,3 -8,3 24 13 32 18 WNW 999,3 10 0,0
24.03.2019 23:00:00 0,6 -8,1 28 15 32 18 NW 998,9 10 0,0
24.03.2019 22:00:00 1,7 -8,4 18 10 32 18 WNW 998,5 10 0,0
24.03.2019 21:00:00 2,6 -7,0 18 10 25 14 NW 998,0 10 0,0
24.03.2019 20:00:00 0,6 -4,6 18 10 43 23 NW 997,6 10 0,0
24.03.2019 19:00:00 3,2 -5,2 31 17 43 23 NNW 996,8 10 0,0
24.03.2019 18:00:00 4,0 -4,5 28 15 40 21 WNW 995,6 10 0,0
24.03.2019 17:00:00 4,7 -5,1 28 15 40 21 WNW 994,9 10 0,0
24.03.2019 16:00:00 4,4 -5,4 31 17 54 29 WNW 994,3 10 0,0
24.03.2019 15:00:00 4,6 -6,3 29 16 54 29 WNW 993,4 10 0,0
24.03.2019 14:00:00 5,3 -6,9 39 21 58 31 WNW 992,3 10 0,0
24.03.2019 13:00:00 4,3 -6,9 48 26 58 31 WNW 991,8 10 0,0
24.03.2019 12:00:00 3,7 -6,6 37 20 68 37 WNW 991,5 10 0,0
24.03.2019 11:00:00 3,1 -6,9 50 27 68 37 WNW 990,8 10 0,0
24.03.2019 10:00:00 3,3 -6,9 42 23 72 39 WNW 989,6 10 0,0
24.03.2019 09:00:00 3,5 -6,8 46 25 72 39 WNW 989,0 10 0,0
24.03.2019 08:00:00 3,7 -6,3 48 26 79 43 WNW 988,0 10 0,0
24.03.2019 07:00:00 3,4 -6,3 41 22 68 37 WNW 987,8 10 0,0
24.03.2019 06:00:00 3,7 -5,0 35 19 65 35 W 987,7 10 0,0
24.03.2019 05:00:00 4,0 -3,5 26 14 54 29 W 987,1 10 0,0
24.03.2019 04:00:00 4,2 -2,9 28 15 54 29 W 985,9 10 0,0
24.03.2019 03:00:00 4,1 -2,7 24 13 50 27 W 984,9 10 0,0
24.03.2019 02:00:00 4,0 -2,6 29 16 50 27 W 984,6 10 0,0
24.03.2019 01:00:00 3,7 -2,9 26 14 43 23 WSW 984,7 10 0,0
24.03.2019 00:00:00 3,3 -3,3 28 15 47 25 WSW 985,2 10 0,0
23.03.2019 23:00:00 3,4 -4,1 26 14 43 23 SW 986,4 10 0,0
23.03.2019 22:00:00 3,6 -5,1 22 12 40 21 SW 987,8 10 0,0
23.03.2019 21:00:00 3,7 -5,0 18 10 32 18 SW 988,7 10 0,0
23.03.2019 20:00:00 4,0 -5,2 18 10 36 19 SW 990,1 10 0,0
23.03.2019 19:00:00 4,3 -4,7 22 12 36 19 SW 990,2 10 0,0
23.03.2019 18:00:00 4,9 -5,2 16 9 43 23 SW 991,2 10 0,0
23.03.2019 17:00:00 6,1 -6,5 16 9 43 23 WSW 991,3 10 0,0
23.03.2019 16:00:00 6,6 -6,7 24 13 47 25 WSW 991,8 10 0,0
23.03.2019 15:00:00 7,3 -6,4 31 17 47 25 W 992,0 10 0,0
23.03.2019 14:00:00 4,0 0,0 21 11 32 18 S 992,3 10 0,0
23.03.2019 13:00:00 5,7 -0,6 21 11 32 18 SW 992,6 10 0,0
23.03.2019 12:00:00 3,8 0,0 16 9 25 14 SSW 993,1 10 0,0
23.03.2019 11:00:00 4,3 0,1 15 8 25 14 SSW 993,0 10 0,0
23.03.2019 10:00:00 2,8 -0,1 15 8 25 14 SSW 994,2 10 0,0
23.03.2019 09:00:00 2,0 0,1 13 7 22 12 SSW 995,3 10 0,0
23.03.2019 08:00:00 1,6 -0,2 15 8 25 14 SSW 995,6 10 0,0
23.03.2019 07:00:00 1,3 -0,2 15 8 29 16 SSW 996,8 10 0,0
23.03.2019 06:00:00 1,2 -0,4 18 10 32 18 SSW 997,4 9 0,0
23.03.2019 05:00:00 1,6 -1,0 15 8 25 14 S 998,2 10 0,0
23.03.2019 04:00:00 1,3 -1,1 21 11 36 19 S 999,7 10 0,0
23.03.2019 03:00:00 1,3 -1,1 24 13 40 21 S 1001,2 10 0,0
23.03.2019 02:00:00 1,1 -0,8 29 16 43 23 S 1002,4 10 0,0
23.03.2019 01:00:00 0,8 -0,2 26 14 43 23 S 1004,1 10 0,0
23.03.2019 00:00:00 0,0 -0,6 29 16 43 23 S 1006,0 6 0,5
22.03.2019 23:00:00 -0,1 -0,7 24 13 47 25 SSW 1008,6 3,0 0,4
22.03.2019 22:00:00 0,2 -1,9 29 16 47 25 S 1010,0 4,0 0,2
22.03.2019 21:00:00 0,6 -2,8 31 17 50 27 S 1011,4 10 0,0
22.03.2019 20:00:00 1,0 -4,0 29 16 43 23 S 1013,0 10 0,0
22.03.2019 19:00:00 0,5 -2,4 24 13 36 19 S 1015,1 10 0,0
22.03.2019 18:00:00 0,6 -3,0 26 14 40 21 S 1016,2 10 0,0
22.03.2019 17:00:00 1,0 -5,0 21 11 29 16 S 1017,9 10 0,0
22.03.2019 16:00:00 2,0 -5,4 15 8 22 12 S 1019,0 10 0,0
22.03.2019 15:00:00 4,1 -7,1 13 7 22 12 S 1020,0 10 0,0
22.03.2019 14:00:00 4,9 -7,9 15 8 22 12 SW 1021,3 10 0,0
22.03.2019 13:00:00 4,6 -7,8 11 6 22 12 SW 1022,2 10 0,0
22.03.2019 12:00:00 3,8 -7,6 13 7 22 12 W 1022,0 10 0,0
22.03.2019 11:00:00 2,8 -7,1 11 6 22 12 W 1022,3 10 0,0
22.03.2019 10:00:00 1,9 -7,2 15 8 25 14 WNW 1021,9 10 0,0
22.03.2019 09:00:00 0,7 -7,1 21 11 32 18 NW 1021,7 10 0,0
22.03.2019 08:00:00 -0,5 -7,3 24 13 32 18 WNW 1021,0 10 0,0
22.03.2019 07:00:00 -1,3 -8,1 16 9 22 12 WNW 1020,2 10 0,0
22.03.2019 06:00:00 -2,2 -8,3 15 8 25 14 WNW 1019,2 10 0,0
22.03.2019 05:00:00 -1,6 -7,7 18 10 25 14 WNW 1018,0 10 0,0
22.03.2019 04:00:00 -0,8 -7,6 16 9 29 16 NW 1016,6 10 0,0
22.03.2019 03:00:00 -1,0 -7,6 26 14 40 21 NW 1015,4 10 0,0
22.03.2019 02:00:00 -0,3 -7,6 28 15 47 25 WNW 1013,6 10 0,0
22.03.2019 01:00:00 0,1 -7,4 35 19 43 23 NW 1011,8 10 0,0
22.03.2019 00:00:00 0,2 -7,1 34 18 47 25 WNW 1009,9 10 0,0
21.03.2019 23:00:00 0,7 -7,1 37 20 58 31 WNW 1008,3 10 0,0
21.03.2019 22:00:00 1,2 -6,6 35 19 54 29 WNW 1006,5 10 0,0
21.03.2019 21:00:00 1,5 -6,6 42 23 61 33 WNW 1005,1 10 0,0
21.03.2019 20:00:00 2,4 -6,2 44 24 65 35 WNW 1003,3 10 0,0
21.03.2019 19:00:00 3,2 -5,7 39 21 61 33 WNW 1001,9 10 0,0
21.03.2019 18:00:00 4,1 -5,9 44 24 65 35 WNW 1001,1 10 0,0
21.03.2019 17:00:00 5,6 -3,5 37 20 58 31 WNW 1000,2 10 0,0
21.03.2019 16:00:00 4,7 0,6 11 6 22 12 WSW 999,1 10 0,0
21.03.2019 15:00:00 2,0 -0,6 15 8 36 19 SSW 998,7 10 0,0
21.03.2019 14:00:00 1,9 -0,2 18 10 32 18 S 999,9 10 0,0
21.03.2019 13:00:00 0,9 -0,9 18 10 32 18 S 1001,2 10 0,0
21.03.2019 12:00:00 1,2 -0,9 13 7 25 14 S 1002,6 10 0,0
21.03.2019 11:00:00 0,4 -1,4 13 7 22 12 S 1003,8 10 0,0
21.03.2019 10:00:00 -3,1 -4,1 9 5 11 6 SE 1004,7 10 0,0
21.03.2019 09:00:00 -1,2 -1,9 0 0 11 6 N 1005,7 10 0,0
21.03.2019 08:00:00 -2,5 -2,9 8 4 11 6 SW 1006,1 10 0,0
21.03.2019 07:00:00 -5,8 -6,7 0 0 11 6 N 1006,2 10 0,0
21.03.2019 06:00:00 -3,3 -3,7 5 3 11 6 SW 1006,5 10 0,0
21.03.2019 05:00:00 -8,7 -10,0 0 0 7 4 N 1006,5 10 0,0
21.03.2019 04:00:00 -6,4 -7,3 0 0 4 2 N 1006,7 10 0,0
21.03.2019 03:00:00 -11,0 -12,0 0 0 0 0 N 1006,8 10 0,0
21.03.2019 02:00:00 -11,5 -12,5 0 0 4 2 N 1007,0 10 0,0
21.03.2019 01:00:00 -10,5 -11,5 0 0 4 2 N 1007,1 10 0,0
21.03.2019 00:00:00 -10,2 -11,2 0 0 0 0 N 1006,9 10 0,0
20.03.2019 23:00:00 -8,3 -9,0 0 0 7 4 N 1006,6 3,3 0,0
20.03.2019 22:00:00 -7,7 -8,5 4 2 7 4 SSE 1006,5 3,0 0,0
20.03.2019 21:00:00 -6,8 -7,5 0 0 7 4 N 1006,5 10 0,0
20.03.2019 20:00:00 -7,3 -8,0 0 0 4 2 N 1006,5 10 0,0
20.03.2019 19:00:00 -5,9 -6,3 0 0 0 0 N 1006,3 1,5 0,0
20.03.2019 18:00:00 -2,7 -3,2 0 0 7 4 N 1006,0 10 0,0
20.03.2019 17:00:00 0,2 -0,9 0 0 22 12 N 1005,9 10 0,0
20.03.2019 16:00:00 -0,2 -0,8 5 3 14 8 WSW 1005,4 10 0,0
20.03.2019 15:00:00 -0,7 -1,3 9 5 22 12 SSW 1005,1 6 0,1
20.03.2019 14:00:00 -1,0 -1,6 15 8 25 14 S 1005,0 4,5 0,1
20.03.2019 13:00:00 -1,2 -1,8 16 9 25 14 S 1005,1 3,0 0,2
20.03.2019 12:00:00 -1,2 -1,8 21 11 29 16 S 1005,1 2,5 0,3
20.03.2019 11:00:00 -1,2 -2,0 16 9 25 14 S 1005,6 3,0 0,2
20.03.2019 10:00:00 -1,3 -2,3 18 10 29 16 S 1006,2 10 0,0
20.03.2019 09:00:00 -1,7 -2,5 16 9 25 14 S 1006,5 10 0,0
20.03.2019 08:00:00 -2,6 -3,7 21 11 32 18 S 1007,0 10 0,0
20.03.2019 07:00:00 -3,3 -4,6 18 10 29 16 S 1007,9 10 0,0
20.03.2019 06:00:00 -4,2 -5,2 15 8 25 14 S 1008,6 10 0,0
20.03.2019 05:00:00 -4,7 -5,4 16 9 22 12 S 1009,4 10 0,0
20.03.2019 04:00:00 -6,3 -7,0 8 4 14 8 S 1010,4 10 0,0
20.03.2019 03:00:00 -7,4 -8,2 5 3 14 8 SSW 1011,4 10 0,0
20.03.2019 02:00:00 -7,6 -8,4 8 4 11 6 S 1012,2 10 0,0
20.03.2019 01:00:00 -10,8 -11,8 4 2 7 4 SSE 1013,0 10 0,0
20.03.2019 00:00:00 -11,5 -12,5 0 0 7 4 N 1013,5 10 0,0
19.03.2019 23:00:00 -10,1 -11,1 0 0 7 4 N 1014,3 10 0,0
19.03.2019 22:00:00 -9,0 -10,1 2 1 7 4 - 1014,7 10 0,0
19.03.2019 21:00:00 -7,2 -7,9 0 0 7 4 N 1015,1 10 0,0
19.03.2019 20:00:00 -6,8 -7,6 0 0 0 0 N 1015,2 10 0,0
19.03.2019 19:00:00 -4,9 -5,4 2 1 7 4 SSE 1015,2 10 0,0
19.03.2019 18:00:00 -3,8 -4,8 0 0 7 4 N 1015,0 10 0,0
19.03.2019 17:00:00 -0,4 -3,1 4 2 14 8 N 1014,8 10 0,0
19.03.2019 16:00:00 -0,4 -3,4 15 8 22 12 NW 1014,6 10 0,0
19.03.2019 15:00:00 0,1 -3,0 16 9 22 12 NW 1014,5 10 0,0
19.03.2019 14:00:00 -0,1 -3,1 18 10 22 12 NW 1014,1 10 0,0
19.03.2019 13:00:00 -1,4 -3,9 16 9 25 14 NW 1013,4 10 0,0

tt = Température de l'air
td = dewpoint
ff = Vitesse du vent
fx = gusts
dd = Direction du vent
ppp = reduced air pressure
vv = visibility
rr = Quantités de précipitations

stations d'obs. à proximité